Home > Weather > Gunsan > Past weeks

Flag for South Korea Past Weather in Gunsan, South Korea — Yesterday and Last 2 Weeks

Now
86 °F

Sunny.


Feels Like: 96 °F
Forecast: 75 / 87 °F
Wind: 8 mph from West

Location: Kunsan Ab

Current Time: Jul 25, 2016 at 7:05:10 PM

Latest Report: Jul 25, 2016 at 5:58 PM


Visibility: 9 mi

Pressure: 29.83 "Hg

Humidity: 72%

Dew Point: 76 °F

Location of GunsanLocation

Past Weather in Gunsan — Graph

°F

Gunsan Temperature Yesterday

Maximum temperature yesterday: 90 °F (at 2:58 PM)
Minimum temperature yesterday: 78 °F (at 6:58 AM)
Average temperature yesterday: 83 °F

High & Low Weather Summary for the Past Weeks

 TemperatureHumidityPressure
High91 °F (Jul 21, 3:58 PM)100% (Jul 12, 6:58 AM)29.89 "Hg (Jul 12, 6:58 AM)
Low68 °F (Jul 18, 3:58 AM)55% (Jul 21, 3:58 PM)29.46 "Hg (Jul 16, 5:03 AM)
Average79 °F82%29.73 "Hg
* Reported Jul 10 5:58 PM — Jul 25 5:58 PM, Gunsan, Weather by CustomWeather, © 2016

Note: Actual official high and low records may vary slightly from our data, if they occured in-between our weather recording intervals... More about our weather records

Advertising

Gunsan Weather History for the Previous 24 Hours

Scroll right to see more
 ConditionsComfort  
Time TempWeatherWind HumidityBarometerVisibility
5:58 PM
Mon, Jul 25
86 °FSunny.8 mph72%29.83 "Hg9 mi
4:58 PM86 °FSunny.7 mph73%29.84 "Hg10 mi
3:58 PM87 °FSunny.8 mph73%29.84 "Hg7 mi
2:58 PM87 °FPassing clouds.9 mph75%29.85 "Hg10 mi
1:58 PM88 °FPassing clouds.13 mph74%29.86 "Hg9 mi
12:58 PM88 °FScattered clouds.12 mph72%29.88 "Hg10 mi
11:58 AM87 °FPassing clouds.13 mph75%29.89 "Hg10 mi
10:58 AM87 °FSunny.12 mph76%29.89 "Hg10 mi
9:58 AM86 °FSunny.12 mph76%29.88 "Hg10 mi
8:58 AM84 °FBroken clouds.8 mph82%29.89 "Hg10 mi
7:58 AM82 °FPassing clouds.5 mph86%29.88 "Hg9 mi
6:58 AM81 °FScattered clouds.5 mph89%29.88 "Hg10 mi
5:58 AM80 °FSunny.6 mph91%29.87 "Hg10 mi
4:58 AM80 °FClear.5 mph93%29.86 "Hg9 mi
3:58 AM79 °FFog.2 mph96%29.87 "Hg5 mi
3:53 AM79 °FFog.3 mph100%29.86 "Hg5 mi
2:58 AM80 °FFog.3 mph96%29.87 "Hg5 mi
1:58 AM81 °FClear.5 mph89%29.87 "Hg10 mi
12:58 AM81 °FPassing clouds.2 mph91%29.88 "Hg9 mi
11:58 PM
Sun, Jul 24
81 °FClear.3 mph91%29.89 "Hg9 mi
10:58 PM81 °FClear.5 mph92%29.88 "Hg9 mi
9:58 PM82 °FClear.3 mph90%29.87 "Hg9 mi
8:58 PM82 °FClear.6 mph87%29.86 "Hg10 mi
7:58 PM83 °FClear.9 mph86%29.84 "Hg10 mi
Weather by CustomWeather, © 2016

See weather overviewHow to use our weather pages